Iowa City, IA

8:09 AM CST on December 07, 2019 (GMT -0600)
Iowa City Municipal

Weather History for KIOW - October, 2019

Change the Weather History Date:

Tuesday, October 15, 2019

  Actual Average Record
Temperature  
Mean Temperature 55 °F 52 °F  
Max Temperature 64 °F 63 °F 87 °F (1963)
Min Temperature 46 °F 41 °F 20 °F (1952)
Degree Days  
Heating Degree Days 10 13  
Month to date heating degree days 160  
Since 1 July heating degree days 272  
Cooling Degree Days 0 0  
Month to date cooling degree days 10  
Year to date cooling degree days 912  
Growing Degree Days 5 (Base 50)    
Moisture  
Dew Point 41 °F    
Average Humidity 65    
Maximum Humidity 83    
Minimum Humidity 44    
Precipitation  
Precipitation 0.00 in 0.11 in 1.59 in (1957)
Month to date precipitation 1.37  
Year to date precipitation 30.91  
Sea Level Pressure  
Sea Level Pressure 29.88 in    
Wind  
Wind Speed 9 mph (West)    
Max Wind Speed 22 mph    
Max Gust Speed 33 mph    
Visibility 10 miles    
Events      
T = Trace of Precipitation, MM = Missing Value Source: NWS Daily Summary

Daily Weather History Graph

Daily Weather History Graph

Search for Another Location

Airport or City:

Astronomy

Oct. 15, 2019 Rise Set
Actual Time 7:18 AM CDT 6:25 PM CDT
Civil Twilight 6:50 AM CDT 6:53 PM CDT
Nautical Twilight 6:17 AM CDT 7:25 PM CDT
Astronomical Twilight 5:45 AM CDT 7:57 PM CDT
Moon 7:44 PM CDT (10/15) 8:49 AM CDT (10/15)
Length of Visible Light 12h 03m
Length of Day
11h 07m
Full, 97% of the Moon is Illuminated
Oct 15
Full
Oct 21
Last Quarter
Oct 27
New
Nov 4
First Quarter
Nov 12
Full

Hourly Weather History & Observations

Time (CDT) Temp. Windchill Dew Point Humidity Pressure Visibility Wind Dir Wind Speed Gust Speed Precip Events Conditions
12:52 AM 48.0 °F - 37.9 °F 68% 29.95 in 10.0 mi ENE 3.5 mph - N/A   Clear
1:52 AM 46.0 °F 44.8 °F 37.9 °F 73% 29.92 in 10.0 mi SSE 3.5 mph - N/A   Partly Cloudy
2:52 AM 46.0 °F 43.9 °F 37.0 °F 71% 29.91 in 10.0 mi SE 4.6 mph - N/A   Clear
3:52 AM 46.9 °F - 39.0 °F 74% 29.86 in 10.0 mi SE 4.6 mph - N/A   Mostly Cloudy
4:52 AM 48.9 °F - 41.0 °F 74% 29.84 in 10.0 mi SE 3.5 mph - N/A   Overcast
5:52 AM 48.9 °F - 42.1 °F 77% 29.83 in 10.0 mi SSE 5.8 mph - N/A   Overcast
6:52 AM 48.9 °F - 42.1 °F 77% 29.82 in 10.0 mi SSE 3.5 mph - N/A   Partly Cloudy
7:52 AM 48.0 °F - 43.0 °F 83% 29.82 in 10.0 mi Calm Calm - N/A   Clear
8:52 AM 54.0 °F - 46.9 °F 77% 29.80 in 10.0 mi SSE 5.8 mph - N/A   Clear
9:52 AM 60.1 °F - 51.1 °F 72% 29.80 in 10.0 mi WSW 11.5 mph 21.9 mph N/A   Clear
10:52 AM 61.0 °F - 50.0 °F 67% 29.80 in 10.0 mi West 18.4 mph - N/A   Scattered Clouds
11:52 AM 63.0 °F - 48.9 °F 60% 29.80 in 10.0 mi WNW 18.4 mph 26.5 mph N/A   Clear
12:52 PM 64.0 °F - 46.0 °F 52% 29.82 in 10.0 mi WNW 19.6 mph 31.1 mph N/A   Clear
1:52 PM 61.0 °F - 42.1 °F 50% 29.83 in 10.0 mi WNW 21.9 mph 31.1 mph N/A   Clear
2:52 PM 59.0 °F - 41.0 °F 51% 29.84 in 10.0 mi WNW 17.3 mph 24.2 mph N/A   Clear
3:52 PM 60.1 °F - 37.9 °F 44% 29.86 in 10.0 mi NW 17.3 mph 29.9 mph N/A   Clear
4:52 PM 59.0 °F - 39.9 °F 49% 29.87 in 10.0 mi WNW 19.6 mph 28.8 mph N/A   Partly Cloudy
5:52 PM 55.0 °F - 39.0 °F 55% 29.91 in 10.0 mi WNW 21.9 mph 33.4 mph N/A   Mostly Cloudy
6:52 PM 52.0 °F - 37.0 °F 57% 29.93 in 10.0 mi WNW 13.8 mph 28.8 mph N/A   Clear
7:52 PM 50.0 °F - 36.0 °F 59% 29.96 in 10.0 mi WNW 18.4 mph 27.6 mph N/A   Clear
8:52 PM 48.9 °F - 36.0 °F 61% 29.98 in 10.0 mi NW 17.3 mph 26.5 mph N/A   Clear
9:52 PM 48.0 °F - 37.0 °F 66% 29.99 in 10.0 mi WNW 13.8 mph 23.0 mph N/A   Mostly Cloudy
10:52 PM 46.9 °F - 37.0 °F 68% 30.00 in 10.0 mi WNW 17.3 mph 24.2 mph N/A   Clear
11:52 PM 46.0 °F 40.2 °F 37.0 °F 71% 30.01 in 10.0 mi WNW 12.7 mph 23.0 mph N/A   Scattered Clouds